This is the latest recevied weather packets stored in our database for station/object WP3OF-1. If no packets are shown the sender has not sent any weather packets the latest 10 day(s).
| Time | Temp. | Humidity | Pressure | Rain* | Wind** | Luminosity | Snow |
|---|---|---|---|---|---|---|---|
| 1777471834 | 27.22° C | 78% | 1016.3 hPa | 0 mm | - | - | - |
| 1777471531 | 27.22° C | 77% | 1015.9 hPa | 0 mm | - | - | - |
| 1777471228 | 27.22° C | 78% | 1016.1 hPa | 0 mm | - | - | - |
| 1777470925 | 27.22° C | 79% | 1015.8 hPa | 0 mm | - | - | - |
| 1777470622 | 27.22° C | 80% | 1016.1 hPa | 0 mm | - | - | - |
| 1777470317 | 27.78° C | 78% | 1015.9 hPa | 0 mm | - | - | - |
| 1777470014 | 27.78° C | 79% | 1015.9 hPa | 0 mm | - | - | - |
| 1777469710 | 27.78° C | 79% | 1016.1 hPa | 0 mm | - | - | - |
| 1777469406 | 27.78° C | 79% | 1016.1 hPa | 0 mm | - | - | - |
| 1777469101 | 27.78° C | 78% | 1015.9 hPa | 0 mm | - | - | - |
| 1777468801 | 27.78° C | 77% | 1016.1 hPa | 0 mm | - | - | - |
| 1777468498 | 27.22° C | 81% | 1016.1 hPa | 0 mm | - | - | - |
| 1777468195 | 27.22° C | 81% | 1015.8 hPa | 0 mm | - | - | - |
| 1777467890 | 26.67° C | 83% | 1015.9 hPa | 0 mm | - | - | - |
| 1777467586 | 26.67° C | 84% | 1015.7 hPa | 0 mm | - | - | - |
| 1777467282 | 27.22° C | 83% | 1015.6 hPa | 0 mm | - | - | - |
| 1777466978 | 27.22° C | 82% | 1015.7 hPa | 0 mm | - | - | - |
| 1777466676 | 26.67° C | 83% | 1015.6 hPa | 0 mm | - | - | - |
| 1777466372 | 26.67° C | 83% | 1015.6 hPa | 0 mm | - | - | - |
| 1777466068 | 26.67° C | 83% | 1015.3 hPa | 0 mm | - | - | - |
| 1777465766 | 26.67° C | 82% | 1015.4 hPa | 0 mm | - | - | - |
| 1777465461 | 26.67° C | 82% | 1015.4 hPa | 0 mm | - | - | - |
| 1777465160 | 27.22° C | 81% | 1015.3 hPa | 0 mm | - | - | - |
| 1777464855 | 27.78° C | 80% | 1015.4 hPa | 0 mm | - | - | - |
| 1777464551 | 27.78° C | 81% | 1015.3 hPa | 0 mm | - | - | - |
* Rain latest hour (hover to see other rain measurements)
** Current wind speed in m/s (hover to see current wind gust speed)